This demonstration page uses our WeatherBlox Daily Observations layout. Learn more.

Left ArrowRight Arrow

39.01783, -85.05884

Hourly Observations for December 5, 2017

Temp ( °F °C ) Dew Point ( °F °C ) Humidity (%) Winds ( mph kmh ) Pressure ( in mb ) Visibility ( mi km ) Precip ( " mm )
12:52 am 00:52 Mostly Cloudy 58 14.4 48 8.9 70 70 S 21 33 29.85 1011 10 16 0.00 0.00
1:52 am 01:52 Cloudy 58 14.4 47 8.3 67 67 S 22 35 29.83 1010 10 16 0.00 0.00
2:52 am 02:52 Cloudy 58 14.4 47 8.3 67 67 S 17 28 29.83 1010 10 16 0.00 0.00
3:27 am 03:27 Cloudy with Heavy Rain 54 12.2 52 11.1 93 93 SSW 10 17 29.88 1012 2 3 0.16 4.06
3:39 am 03:39 Cloudy with Rain 54 12.2 52 11.1 93 93 SSW 10 17 29.88 1012 4 6 0.22 5.59
3:52 am 03:52 Cloudy with Rain 54 12.2 52 11.1 93 93 S 16 26 29.86 1011 4 6 0.26 6.60
4:52 am 04:52 Cloudy with Light Rain 54 12.2 53 11.7 97 97 SSW 16 26 29.87 1012 6 10 0.12 3.05
5:52 am 05:52 Cloudy with Rain 54 12.2 54 12.2 100 100 SSW 16 26 29.87 1012 4 6 0.13 3.30
6:52 am 06:52 Cloudy with Mist and Fog 55 12.8 55 12.8 100 100 SW 10 17 29.88 1012 6 10 0.04 1.02
7:52 am 07:52 Cloudy with Mist and Fog 55 12.8 55 12.8 100 100 SW 10 17 29.89 1012 6 10 0.00 0.00
8:00 am 08:00 Cloudy with Drizzle 55 12.8 55 12.8 100 100 SW 7 11 29.91 1013 3 5 0.00 0.03
8:17 am 08:17 Cloudy 53 11.7 50 10 89 89 W 21 33 29.94 1014 7 11 0.00 0.03
8:21 am 08:21 Cloudy 52 11.1 50 10 93 93 W 18 30 29.94 1014 8 13 0.00 0.03
8:39 am 08:39 Cloudy with Mist and Fog 50 10 49 9.4 96 96 WNW 13 20 29.94 1014 3 4 0.00 0.03
8:52 am 08:52 Cloudy 50 10 49 9.4 96 96 WNW 10 17 29.92 1013 8 13 0.00 0.03
9:52 am 09:52 Cloudy 47 8.3 44 6.7 90 90 WNW 20 31 29.97 1015 8 13 0.00 0.00
10:52 am 10:52 Cloudy 45 7.2 38 3.3 77 77 WNW 14 22 30.00 1016 10 16 0.00 0.00
11:52 am 11:52 Cloudy 44 6.7 37 2.8 76 76 W 14 22 29.99 1016 10 16 0.00 0.00
12:52 pm 12:52 Cloudy 44 6.7 37 2.8 76 76 W 15 24 29.97 1015 10 16 0.00 0.00
1:52 pm 13:52 Cloudy 44 6.7 36 2.2 73 73 W 16 26 29.98 1015 10 16 0.00 0.00
2:52 pm 14:52 Cloudy 40 4.4 31 -0.6 70 70 WNW 20 31 30.01 1016 10 16 0.00 0.00
3:52 pm 15:52 Cloudy 39 3.9 31 -0.6 73 73 W 13 20 30.03 1017 10 16 0.00 0.00
4:52 pm 16:52 Mostly Cloudy 38 3.3 30 -1.1 73 73 W 10 17 30.06 1018 10 16 0.00 0.00
5:52 pm 17:52 Mostly Cloudy 36 2.2 24 -4.4 62 62 W 9 15 30.06 1018 10 16 0.00 0.00
6:52 pm 18:52 Mostly Cloudy 35 1.7 24 -4.4 64 64 WSW 6 9 30.10 1019 10 16 0.00 0.00
7:52 pm 19:52 Partly Cloudy 34 1.1 22 -5.6 61 61 WSW 8 13 30.12 1020 10 16 0.00 0.00
8:52 pm 20:52 Partly Cloudy 32 0 21 -6.1 64 64 WSW 7 11 30.14 1021 10 16 0.00 0.00
9:52 pm 21:52 Clear 32 0 22 -5.6 66 66 SW 8 13 30.15 1021 10 16 0.00 0.00
10:52 pm 22:52 Clear 31 -0.6 22 -5.6 69 69 WSW 6 9 30.16 1021 10 16 0.00 0.00
11:52 pm 23:52 Clear 30 -1.1 22 -5.6 72 72 WSW 6 9 30.16 1021 10 16 0.00 0.00

Powered by AerisWeather